FW1466 Weather Reports


Display with metric or nautical units.
time (UTC)temp
F
wind
direction
speed
MPH
gust
MPH
rain 1hr
in
rain 24hr
in
rain mn
in
humidity
%
barometer
mb
20260509143014 62 259 1.0 6.0 0.00 0.00 0.00 80 1004.8
20260509141509 61 297 0.0 5.0 0.00 0.00 0.00 80 1004.5
20260509140007 60 305 0.0 6.0 0.00 0.00 0.00 83 1004.9
20260509134502 59 196 0.0 3.0 0.00 0.00 0.00 85 1004.8
20260509133105 58 153 0.0 5.0 0.00 0.00 0.00 88 1004.7
20260509131555 56 355 0.0 3.0 0.00 0.00 0.00 91 1004.7
20260509130049 55 236 1.0 4.0 0.00 0.00 0.00 92 1004.6
20260509124547 54 209 1.0 6.0 0.00 0.00 0.00 94 1004.7
20260509123040 53 272 1.0 6.0 0.00 0.00 0.00 96 1004.7
20260509121541 52 257 1.0 3.0 0.00 0.00 0.00 97 1004.7
20260509120036 51 194 0.0 3.0 0.00 0.00 0.00 97 1004.6
20260509114535 51 205 0.0 0.0 0.00 0.00 0.00 97 1004.6
20260509113030 50 205 0.0 0.0 0.00 0.00 0.00 97 1004.4
20260509111530 50 205 0.0 0.0 0.00 0.00 0.00 97 1004.3
20260509110026 50 206 0.0 0.0 0.00 0.00 0.00 96 1004.3
20260509104525 51 202 0.0 0.0 0.00 0.00 0.00 96 1004.1
20260509103024 51 208 0.0 7.0 0.00 0.00 0.00 96 1004.1
20260509101523 51 186 0.0 3.0 0.00 0.00 0.00 97 1004.0
20260509100022 51 170 0.0 3.0 0.00 0.00 0.00 97 1004.1
20260509094520 51 117 0.0 2.0 0.00 0.00 0.00 96 1004.4
20260509093018 51 117 0.0 0.0 0.00 0.00 0.00 96 1004.4
20260509091526 51 114 0.0 1.0 0.00 0.00 0.00 96 1004.6
20260509090015 51 114 0.0 2.0 0.00 0.00 0.00 96 1004.7
20260509084520 51 114 0.0 2.0 0.00 0.00 0.00 95 1004.7
20260509083013 51 135 0.0 1.0 0.00 0.00 0.00 95 1004.9
20260509081512 51 138 0.0 0.0 0.00 0.00 0.00 95 1004.9
20260509080022 51 138 0.0 1.0 0.00 0.00 0.00 94 1004.9
20260509074511 51 138 0.0 0.0 0.00 0.00 0.00 94 1004.7
20260509073018 51 138 0.0 1.0 0.00 0.00 0.00 93 1005.0
20260509071506 51 138 0.0 2.0 0.00 0.00 0.00 93 1005.1
20260509070005 51 136 0.0 1.0 0.00 0.00 0.00 92 1005.5
20260509064503 52 136 0.0 1.0 0.00 0.00 0.00 92 1005.7
20260509063001 52 136 0.0 2.0 0.00 0.00 0.00 92 1005.7
20260509061600 52 135 0.0 0.0 0.00 0.00 0.00 91 1005.9
20260509060058 53 135 0.0 1.0 0.00 0.00 0.00 91 1006.0
20260509054603 53 136 0.0 2.0 0.00 0.00 0.00 90 1006.1
20260509053053 53 126 0.0 2.0 0.00 0.00 0.00 90 1006.2
20260509051558 54 123 0.0 1.0 0.00 0.00 0.00 89 1006.3
20260509050049 54 123 0.0 2.0 0.00 0.00 0.00 89 1006.1
20260509044549 55 121 0.0 0.0 0.00 0.00 0.00 88 1006.2
20260509043054 55 120 0.0 2.0 0.00 0.00 0.00 86 1006.3
20260509041547 56 119 0.0 1.0 0.00 0.00 0.00 85 1006.2
20260509040100 56 117 0.0 4.0 0.00 0.00 0.00 83 1006.1
20260509034547 57 90 0.0 3.0 0.00 0.00 0.00 81 1006.2
20260509033046 57 160 0.0 3.0 0.00 0.00 0.00 79 1006.3
20260509031545 58 155 1.0 8.0 0.00 0.00 0.00 77 1006.4
20260509030046 58 88 0.0 3.0 0.00 0.00 0.00 76 1006.3
20260509024546 58 197 1.0 4.0 0.00 0.00 0.00 75 1006.3
20260509023046 58 133 0.0 5.0 0.00 0.00 0.00 74 1006.3
20260509021543 58 13 0.0 0.0 0.00 0.00 0.00 70 1006.2
20260509020044 58 13 0.0 0.0 0.00 0.00 0.00 68 1006.2
20260509014542 59 13 0.0 0.0 0.00 0.00 0.00 65 1005.9
20260509013054 60 13 0.0 0.0 0.00 0.00 0.00 64 1006.0
20260509011541 61 13 0.0 0.0 0.00 0.00 0.00 63 1006.0
20260509010042 62 13 0.0 0.0 0.00 0.00 0.00 62 1006.0
20260509004601 63 13 0.0 0.0 0.00 0.00 0.00 60 1005.9
20260509003044 64 14 0.0 3.0 0.00 0.00 0.00 60 1006.0
20260509001537 64 325 0.0 2.0 0.00 0.00 0.00 59 1006.1
20260509000036 64 330 0.0 3.0 0.00 0.00 0.00 59 1006.0
20260508234537 65 131 0.0 3.0 0.00 0.00 0.00 57 1006.1
20260508233036 66 339 0.0 3.0 0.00 0.00 0.00 56 1006.1
20260508231535 66 90 0.0 3.0 0.00 0.00 0.00 53 1006.0
20260508230049 66 159 0.0 2.0 0.00 0.01 0.00 54 1006.2
20260508224534 66 252 0.0 4.0 0.00 0.01 0.00 54 1006.3
20260508223034 66 194 0.0 3.0 0.00 0.01 0.00 54 1006.4
20260508221531 66 168 0.0 2.0 0.00 0.01 0.00 52 1006.4
20260508220030 66 169 0.0 3.0 0.00 0.05 0.00 54 1006.6
20260508214529 66 167 0.0 6.0 0.00 0.05 0.00 54 1006.6
20260508213026 65 171 0.0 3.0 0.00 0.05 0.00 56 1006.9
20260508211530 65 175 0.0 4.0 0.00 0.05 0.00 54 1007.0
20260508210024 65 121 0.0 2.0 0.00 0.05 0.00 57 1007.0
20260508204524 65 143 2.0 5.0 0.00 0.05 0.00 57 1007.0
20260508203022 66 94 0.0 7.0 0.00 0.05 0.00 54 1007.2
20260508201520 68 209 1.0 8.0 0.00 0.05 0.00 51 1007.5
20260508200028 68 150 0.0 9.0 0.00 0.05 0.00 51 1007.5
20260508194517 67 86 1.0 6.0 0.00 0.05 0.00 56 1007.9
20260508193014 68 135 1.0 6.0 0.00 0.05 0.00 56 1008.0
20260508191514 67 148 2.0 5.0 0.00 0.05 0.00 51 1008.2
20260508190009 67 266 0.0 4.0 0.00 0.05 0.00 49 1008.3
20260508184506 66 168 1.0 3.0 0.00 0.05 0.00 58 1008.6
20260508183006 66 149 0.0 5.0 0.00 0.05 0.00 52 1008.9
20260508181503 66 111 0.0 4.0 0.00 0.05 0.00 57 1009.1
20260508180059 65 171 2.0 7.0 0.00 0.05 0.00 57 1009.3
20260508174556 65 182 3.0 5.0 0.00 0.05 0.00 62 1009.3
20260508173056 65 151 2.0 7.0 0.00 0.05 0.00 66 1009.5
20260508171551 63 117 0.0 6.0 0.00 0.05 0.00 69 1009.9
20260508170048 63 127 2.0 5.0 0.00 0.05 0.00 68 1010.2
20260508164559 63 115 1.0 6.0 0.00 0.05 0.00 68 1010.3
20260508163144 62 28 1.0 4.0 0.00 0.05 0.00 70 1010.5
20260508161547 61 167 1.0 3.0 0.00 0.05 0.00 74 1010.7
20260508160040 62 148 1.0 3.0 0.00 0.05 0.00 71 1010.8
20260508154542 62 155 1.0 6.0 0.00 0.05 0.00 71 1010.8
20260508153034 61 180 2.0 6.0 0.00 0.05 0.00 74 1010.9
20260508151533 60 149 1.0 5.0 0.00 0.05 0.00 75 1011.0
20260508150033 60 119 1.0 4.0 0.00 0.05 0.00 74 1011.1
20260508144543 58 105 0.0 4.0 0.00 0.05 0.00 77 1011.2